Waarnemingen

Advertentie
Mijn weer
Norrkoping, Zweden (2574): temperatuur & dauwpunt: 13.01.2018 23:00:00 - 19.01.2018 23:00:00 (CET)Norrkoping, Zweden (2574): windsnelheid & windstoten: 13.01.2018 23:00:00 - 19.01.2018 23:00:00 (CET)Norrkoping, Zweden (2574): windrichting: 13.01.2018 23:00:00 - 19.01.2018 23:00:00 (CET)Norrkoping, Zweden (2574): luchtdruk: 13.01.2018 23:00:00 - 19.01.2018 23:00:00 (CET)Norrkoping, Zweden (2574): zicht: 13.01.2018 23:00:00 - 19.01.2018 23:00:00 (CET)Norrkoping, Zweden (2574): neerslag: 13.01.2018 23:00:00 - 19.01.2018 23:00:00 (CET)
Datum & Tijd tt [°C] td [°C] ff [km/u] ff [kn] fx [km/u] fx [kn] dd ppp [hPa] vv [km] rr [mm]
19.01.2018 23:00:00 -0,4 -0,8 5 3 11 6 ZO 1006,2 13 0,0
19.01.2018 22:00:00 -0,8 -1,1 3 2 8 5 O 1006,1 10 0,1
19.01.2018 21:00:00 -1,4 -2,0 5 3 10 5 NO 1005,7 7 0,0
19.01.2018 20:00:00 -1,2 -1,9 4 2 12 7 NO 1005,6 7 0,0
19.01.2018 19:00:00 -1,2 -2,5 4 2 8 5 NNO 1005,3 14 0,0
19.01.2018 18:00:00 -1,4 -2,5 0 0 9 5 N 1005,2 11 0,0
19.01.2018 17:00:00 -1,0 -2,6 4 2 7 4 NNO 1005,1 12 0,0
19.01.2018 16:00:00 -1,4 -2,7 0 0 5 3 N 1004,8 14 0,0
19.01.2018 15:00:00 -0,6 -2,5 2 1 5 3 NNO 1004,3 18 0,0
19.01.2018 14:00:00 -0,3 -2,5 0 0 4 2 N 1003,9 19 0,0
19.01.2018 13:00:00 -0,6 -2,7 0 0 6 4 N 1003,5 17 0,0
19.01.2018 12:00:00 -1,4 -3,1 0 0 9 5 N 1003,2 15 0,0
19.01.2018 11:00:00 -0,1 -2,8 4 2 12 6 NO 1002,7 27 0,0
19.01.2018 10:00:00 -0,8 -3,0 5 3 12 6 NO 1002,3 31 0,0
19.01.2018 09:00:00 -1,2 -3,1 4 2 9 5 ONO 1001,7 31 0,0
19.01.2018 08:00:00 -1,6 -2,7 2 1 10 6 ONO 1000,9 20 0,0
19.01.2018 07:00:00 -1,8 -2,6 3 2 8 5 NO 1000,1 10 0,0
19.01.2018 06:00:00 -1,3 -1,7 2 1 7 4 ONO 999,7 8 0,1
19.01.2018 05:00:00 -0,8 -1,1 2 1 3 2 N 999,1 1,5 0,2
19.01.2018 04:00:00 -0,9 -1,5 2 1 7 4 ONO 998,7 6 0,1
19.01.2018 03:00:00 -0,9 -1,5 3 1 7 4 ONO 998,3 11 0,0
19.01.2018 02:00:00 -1,0 -1,6 2 1 11 6 N 997,7 15 0,0
19.01.2018 01:00:00 -0,6 -1,3 4 2 13 7 ONO 997,2 30 0,0
19.01.2018 00:00:00 -0,7 -1,4 3 2 9 5 N 996,7 15 0,0
18.01.2018 23:00:00 -0,3 -0,9 3 2 11 6 NO 996,4 13 0,0
18.01.2018 22:00:00 -0,4 -0,8 3 2 10 5 N 995,9 7 0,0
18.01.2018 21:00:00 -0,4 -0,8 3 2 7 4 NNO 995,5 7 0,0
18.01.2018 20:00:00 -0,6 -1,2 3 1 13 7 NO 994,8 9 0,0
18.01.2018 19:00:00 -0,5 -1,1 3 2 10 5 NO 994,3 8 0,0
18.01.2018 18:00:00 -0,2 -0,8 4 2 12 6 NNO 993,7 6 0,0
18.01.2018 17:00:00 -0,1 -0,7 5 3 10 5 NNO 993,4 4,1 0,0
18.01.2018 16:00:00 0,2 -0,5 3 2 14 8 NO 993,3 9 0,0
18.01.2018 15:00:00 0,5 -0,5 7 4 16 9 O 993,1 12 0,0
18.01.2018 14:00:00 0,3 -0,3 7 4 14 8 O 993,0 3,9 0,1
18.01.2018 13:00:00 0,4 -0,2 5 3 12 6 O 992,9 5 0,0
18.01.2018 12:00:00 0,3 -0,1 5 3 11 6 O 993,0 4,0 0,0
18.01.2018 11:00:00 0,2 -0,1 4 2 10 6 O 993,3 2,7 0,3
18.01.2018 10:00:00 0,1 -0,2 4 2 10 5 OZO 993,5 2,3 1,1
18.01.2018 09:00:00 0,1 -0,2 4 2 10 5 O 993,7 3,3 0,0
18.01.2018 08:00:00 0,0 -0,3 3 2 8 4 ONO 993,5 3,8 0,0
18.01.2018 07:00:00 -0,1 -0,4 0 0 10 5 N 993,3 3,6 0,0
18.01.2018 06:00:00 -0,3 -0,6 5 3 9 5 ONO 993,1 5 0,0
18.01.2018 05:00:00 -0,3 -0,6 4 2 8 4 ONO 993,2 5 0,1
18.01.2018 04:00:00 -0,4 -0,7 3 2 12 7 ONO 993,4 4,1 0,2
18.01.2018 03:00:00 -0,3 -0,6 5 3 13 7 ONO 993,5 3,9 0,2
18.01.2018 02:00:00 -0,4 -0,7 5 3 13 7 ONO 993,1 3,6 0,4
18.01.2018 01:00:00 -0,5 -0,6 4 2 5 3 O 992,8 2,9 0,4
18.01.2018 00:00:00 -0,6 -0,9 0 0 9 5 N 992,8 2,9 0,1
17.01.2018 23:00:00 -0,6 -0,7 4 2 13 7 ONO 992,3 3,5 0,2
17.01.2018 22:00:00 -0,5 -0,6 4 2 13 7 O 991,9 3,0 0,2
17.01.2018 21:00:00 -0,3 -0,4 5 3 14 8 O 991,3 6 0,1
17.01.2018 20:00:00 -0,2 -0,3 6 4 16 9 O 990,4 2,8 0,4
17.01.2018 19:00:00 -0,1 -0,2 6 4 16 9 O 990,0 1,2 1,1
17.01.2018 18:00:00 0,0 -0,1 8 4 17 9 O 989,5 1,6 0,7
17.01.2018 17:00:00 0,1 -0,1 11 6 16 9 O 989,1 1,9 0,7
17.01.2018 16:00:00 0,3 0,0 8 5 16 8 ZO 988,5 6 0,5
17.01.2018 15:00:00 0,2 -0,1 5 3 18 10 O 987,8 6 0,4
17.01.2018 14:00:00 0,3 0,0 6 4 16 8 O 987,3 3,0 0,4
17.01.2018 13:00:00 0,2 -0,1 7 4 16 8 O 986,9 3,9 0,1
17.01.2018 12:00:00 0,4 0,1 8 5 19 10 O 986,6 7 0,0
17.01.2018 11:00:00 0,3 0,2 7 4 16 9 O 986,4 7 0,1
17.01.2018 10:00:00 0,3 0,2 5 3 15 8 OZO 986,0 3,5 0,3
17.01.2018 09:00:00 0,2 0,1 8 5 18 10 OZO 985,5 2,4 0,8
17.01.2018 08:00:00 0,4 0,1 10 6 20 11 O 984,9 1,6 0,5
17.01.2018 07:00:00 0,6 0,3 9 5 16 9 O 984,5 6 0,1
17.01.2018 06:00:00 0,7 0,4 5 3 12 7 O 984,5 3,8 0,1
17.01.2018 05:00:00 1,0 0,6 5 3 13 7 O 984,2 4,2 0,1
17.01.2018 04:00:00 1,4 0,8 7 4 15 8 OZO 984,4 8 0,0
17.01.2018 03:00:00 1,3 1,0 5 3 17 9 OZO 984,5 5 0,0
17.01.2018 02:00:00 1,1 1,0 9 5 16 8 OZO 984,8 2,4 0,0
17.01.2018 01:00:00 1,2 0,9 7 4 18 10 OZO 984,9 6 0,0
17.01.2018 00:00:00 1,1 0,8 9 5 21 12 ZO 985,0 6 0,0
16.01.2018 23:00:00 1,1 1,0 13 7 26 14 ZO 985,1 5 0,0
16.01.2018 22:00:00 0,9 0,8 10 6 26 14 ZO 985,2 6 0,0
16.01.2018 21:00:00 0,9 0,5 10 5 24 13 ZO 985,5 13 0,0
16.01.2018 20:00:00 1,0 0,6 12 6 26 14 ZO 985,5 16 0,0
16.01.2018 19:00:00 0,8 0,4 11 6 26 14 ZZO 985,5 15 0,0
16.01.2018 18:00:00 0,6 0,3 12 7 32 17 ZZO 985,4 15 0,0
16.01.2018 17:00:00 0,6 0,3 13 7 28 15 ZZO 985,5 20 0,0
16.01.2018 16:00:00 0,0 -0,1 14 8 31 17 ZO 985,4 11 0,6
16.01.2018 15:00:00 -0,1 -0,2 15 8 38 21 ZO 985,5 1,2 0,6
16.01.2018 14:00:00 0,5 -0,9 20 11 43 23 ZO 985,5 4,1 0,0
16.01.2018 13:00:00 0,6 -1,0 18 10 45 25 ZO 986,2 4,6 0,1
16.01.2018 12:00:00 0,8 -2,1 20 11 44 24 ZZO 986,7 16 0,0
16.01.2018 11:00:00 0,8 -1,9 18 10 43 23 ZO 987,4 7 0,0
16.01.2018 10:00:00 0,8 -1,9 22 12 46 25 ZO 988,0 14 0,1
16.01.2018 09:00:00 0,6 -1,6 19 10 46 25 ZO 988,6 5 0,1
16.01.2018 08:00:00 1,3 -1,8 27 15 56 30 ZO 988,9 10 0,0
16.01.2018 07:00:00 1,3 -1,9 22 12 53 29 ZO 989,5 12 0,0
16.01.2018 06:00:00 1,0 -1,9 22 12 51 28 ZO 990,9 12 0,0
16.01.2018 05:00:00 0,5 -2,1 23 13 50 27 ZO 992,3 10 0,0
16.01.2018 04:00:00 0,2 -2,7 22 12 61 33 ZO 994,1 13 0,0
16.01.2018 03:00:00 -0,1 -3,3 22 12 54 29 ZO 995,5 14 0,0
16.01.2018 02:00:00 -0,2 -3,1 17 9 39 21 ZO 997,6 14 0,0
16.01.2018 01:00:00 -0,1 -3,3 22 12 50 27 ZO 998,8 16 0,0
16.01.2018 00:00:00 -0,1 -3,5 21 11 46 25 ZO 1000,3 20 0,0
15.01.2018 23:00:00 -0,1 -3,5 20 11 45 24 ZO 1001,5 20 0,0
15.01.2018 22:00:00 -0,1 -3,8 18 10 46 25 ZO 1003,3 22 0,0
15.01.2018 21:00:00 -0,2 -3,7 20 11 40 21 ZO 1004,6 24 0,0
15.01.2018 20:00:00 -0,6 -4,0 21 11 42 23 ZO 1006,1 24 0,0
15.01.2018 19:00:00 -1,1 -3,9 16 9 42 23 ZZO 1007,8 19 0,0
15.01.2018 18:00:00 -1,3 -4,8 18 10 42 23 ZZO 1009,3 26 0,0
15.01.2018 17:00:00 -1,7 -5,2 16 9 32 17 ZO 1010,8 23 0,0
15.01.2018 16:00:00 -2,3 -5,8 13 7 36 19 ZZO 1012,4 20 0,0
15.01.2018 15:00:00 -2,3 -6,5 16 8 32 18 ZO 1013,4 26 0,0
15.01.2018 14:00:00 -1,9 -5,9 11 6 33 18 ZZO 1014,2 28 0,0
15.01.2018 13:00:00 -2,0 -5,8 12 6 31 17 ZZO 1015,8 26 0,0
15.01.2018 12:00:00 -2,1 -6,1 10 5 30 16 ZZO 1017,4 21 0,0
15.01.2018 11:00:00 -2,4 -6,6 16 9 35 19 ZZO 1018,4 23 0,0
15.01.2018 10:00:00 -2,7 -7,2 15 8 39 21 ZZO 1019,4 32 0,0
15.01.2018 09:00:00 -2,7 -7,4 18 10 36 19 Z 1020,0 35 0,0
15.01.2018 08:00:00 -2,7 -7,6 16 9 31 17 ZZO 1020,9 39 0,0
15.01.2018 07:00:00 -2,6 -7,3 10 5 29 15 Z 1021,9 36 0,0
15.01.2018 06:00:00 -2,7 -7,4 11 6 26 14 ZZO 1022,7 39 0,0
15.01.2018 05:00:00 -2,7 -7,8 14 7 26 14 Z 1023,6 43 0,0
15.01.2018 04:00:00 -2,3 -7,4 15 8 26 14 Z 1024,2 49 0,0
15.01.2018 03:00:00 -2,0 -7,1 13 7 31 17 Z 1025,2 50 0,0
15.01.2018 02:00:00 -1,8 -6,5 13 7 28 15 ZZO 1026,2 50 0,0
15.01.2018 01:00:00 -1,5 -6,8 16 9 30 16 ZZO 1026,8 50 0,0
15.01.2018 00:00:00 -1,4 -6,7 12 7 31 17 ZZO 1027,7 50 0,0
14.01.2018 23:00:00 -1,2 -6,5 16 8 32 17 ZZO 1028,5 50 0,0
14.01.2018 22:00:00 -1,1 -6,6 15 8 29 16 ZZO 1028,7 50 0,0
14.01.2018 21:00:00 -1,0 -6,4 8 5 29 16 ZZO 1029,6 50 0,0
14.01.2018 20:00:00 -1,1 -6,6 11 6 26 14 ZZO 1030,2 50 0,0
14.01.2018 19:00:00 -1,2 -6,7 9 5 26 14 Z 1031,0 50 0,0
14.01.2018 18:00:00 -1,1 -7,0 12 7 29 16 Z 1031,7 50 0,0
14.01.2018 17:00:00 -0,8 -6,8 11 6 20 11 ZZO 1032,2 50 0,0
14.01.2018 16:00:00 -0,4 -6,6 11 6 22 12 ZZO 1032,4 50 0,0
14.01.2018 15:00:00 -0,2 -6,4 11 6 26 14 ZZO 1032,9 50 0,0
14.01.2018 14:00:00 0,2 -6,4 15 8 26 14 Z 1033,2 50 0,0
14.01.2018 13:00:00 0,3 -5,9 14 7 28 15 Z 1033,6 50 0,0
14.01.2018 12:00:00 0,3 -5,5 12 7 22 12 ZZO 1034,1 50 0,0
14.01.2018 11:00:00 0,1 -5,1 6 3 12 7 ZZO 1034,6 50 0,0
14.01.2018 10:00:00 -0,2 -5,0 5 3 15 8 ZZO 1035,0 50 0,0
14.01.2018 09:00:00 -0,7 -4,8 3 2 6 4 ZO 1035,1 50 0,0
14.01.2018 08:00:00 -0,7 -4,8 3 1 6 3 ZO 1035,4 50 0,0
14.01.2018 07:00:00 -0,6 -5,0 4 2 6 3 ZZO 1035,6 50 0,0
14.01.2018 06:00:00 -0,5 -5,3 3 2 5 3 ZZO 1035,7 50 0,0
14.01.2018 05:00:00 -0,3 -5,5 3 1 11 6 ZO 1035,9 50 0,0
14.01.2018 04:00:00 -0,5 -5,5 3 2 8 4 OZO 1036,5 50 0,0
14.01.2018 03:00:00 -0,4 -5,4 2 1 5 3 ZO 1037,0 50 0,0
14.01.2018 02:00:00 -0,2 -5,4 5 3 16 8 Z 1037,3 50 0,0
14.01.2018 01:00:00 -0,2 -5,4 4 2 14 8 ZZO 1037,4 50 0,0
14.01.2018 00:00:00 0,0 -5,2 7 4 15 8 Z 1037,7 50 0,0
13.01.2018 23:00:00 -0,1 -5,3 4 2 11 6 ZZO 1037,9 50 0,0

tt = temperatuur
td = dauwpunt
ff = windsnelheid
fx = windstoten
dd = windrichting
ppp = luchtdruk
vv = zicht
rr = neerslag

Weerstations in de omgeving